Location: Bannatyne
(13.0833°N, 59.5333°W)
Time: 17:36:25
(UTC+00:00)

NOSS 3-2 (C) - Pass Details

Date: 18 October 2019
Orbit: 818 x 1394 km, 63.4° (Epoch: 06 November)

Event Time Altitude Azimuth Distance (km) Brightness Sun altitude
Rises 21:46:13 0° 188° (S) 3,352 6.6 -2.9°
Reaches altitude 10° 21:48:47 10° 180° (S) 2,404 5.7 -3.5°
Maximum altitude 21:53:51 39° 112° (ESE) 1,205 3.7 -4.7°
Drops below altitude 10° 21:59:04 10° 44° (NE) 2,485 5.2 -6.0°
Sets 22:01:45 0° 36° (NE) 3,478 6.0 -6.6°
